Presure
135 129 143 138 142 154 135 145 147 146 144 135 148 147 154 127 132 149 137 129 123 131 140 148 163 158 141 136 140 133 158 174 210 178 192 170 193 181 175 179 230 235 171 170 151 144 139 141 161
140 144 146 144 141 137 143 139 142 144 149 135 147 140 123 147 126 136 133 133 129 142 148 152 162 153 143 127 142 141 173 149 227 185 174 179 180 181 192 200 190 230 243 179 154 143 139 143 139
139 144 137 140 138 132 135 125 144 132 133 155 151 148 144 147 131 146 148 141 132 142 140 156 149 157 148 144 139 136 173 140 186 221 213 180 188 146 186 184 116 208 229 175 169 150 143 134 144
160 170 167 160 167 169 110 124 139 147 137 138 137 141 141 155 138 152 151 142 140 147 141 153 146 161 155 146 127 136 136 158 142 189 219 226 173 182 197 199 198 199 204 212 223 218 153 153 85
157 161 167 170 171 163 249 185 133 171 149 143 139 151 145 150 136 140 132 135 141 147 151 154 147 162 160 147 141 139 129 169 153 149 159 185 214 218 178 179 181 184 188 200 205 210 213 194 139
175 176 160 176 155 185 192 230 237 231 168 166 153 169 139 152 148 150 141 139 134 152 156 159 161 145 156 154 159 134 139 129 156 144 148 147 155 156 157 157 160 163 167 173 178 187 88 163 197
142 163 157 171 173 172 188 189 196 190 216 160 158 168 152 146 149 131 143 136 125 147 128 141 168 149 158 162 152 142 143 143 127 151 150 150 146 150 151 150 152 120 173 184 151 155 158 161 165
163 148 167 165 165 165 170 186 196 192 184 146 180 175 172 152 152 143 131 127 142 137 160 134 155 156 167 160 159 153 145 134 160 131 161 160 157 150 153 158 148 164 148 154 180 194 143 129 139
156 163 170 164 163 152 158 165 177 179 181 185 187 186 151 153 130 136 136 133 147 145 161 163 145 162 158 155 156 156 144 149 133 139 145 116 156 137 153 153 153 159 152 161 152 162 162 162 168
158 159 160 171 137 163 160 143 152 136 152 160 158 149 128 131 119 154 142 155 156 164 160 157 152 148 162 155 150 148 151 146 138 143 136 146 158 113 157 150 145 158 151 151 141 156 147 143 153
188 160 187 191 206 204 165 168 165 166 183 170 163 163 169 169 172 170 166 167 162 154 143 148 162 145 172 166 163 151 143 149 140 132 155 155 142 127 162 116 158 149 148 156 141 144 145 149 154
191 195 195 203 219 222 205 172 177 163 175 179 169 219 212 180 179 179 176 166 170 167 157 147 157 161 175 160 153 155 143 140 144 146 133 146 127 140 145 127 158 155 164 139 153 155 152 148 158
195 184 199 168 133 133 157 183 154 134 161 159 182 186 173 177 187 225 227 252 167 176 179 171 149 169 174 174 156 148 154 157 138 136 145 147 134 139 162 127 148 130 119 140 147 125 158 152 146
203 138 160 175 136 191 191 196 178 179 147 179 179 160 174 187 166 165 192 181 200 205 183 186 183 166 189 167 154 160 142 153 142 145 138 157 134 133 119 154 142 142 130 154 137 151 141 133 147
140 172 169 165 186 133 162 134 206 133 142 188 178 170 180 190 169 156 161 153 203 173 187 220 157 149 146 179 169 157 161 144 154 143 160 145 133 137 135 157 149 146 138 151 132 154 150 135 141
145 143 140 151 139 133 118 224 207 213 192 183 170 175 180 170 178 133 144 178 139 168 151 144 162 153 143 129 151 164 157 162 150 155 154 153 137 134 142 137 130 153 132 136 135 140 138 128 141
213 126 152 151 194 188 202 195 206 137 176 186 178 186 191 189 190 187 168 156 148 154 148 162 149 162 145 146 170 148 147 160 160 166 128 162 159 149 144 143 136 130 136 129 150 138 136 132 132
126 147 157 176 173 221 222 209 203 198 228 219 193 179 179 173 211 200 167 157 178 155 141 151 172 172 156 146 207 138 169 161 157 149 125 139 154 144 137 151 143 142 131 143 148 146 145 131 137
140 169 170 159 131 216 221 217 203 160 169 210 218 190 175 178 179 210 198 160 159 143 172 131 142 176 165 167 193 144 193 133 178 175 187 151 148 142 144 148 141 134 150 133 134 148 153 143 137
129 140 184 127 131 212 187 204 203 186 191 176 131 203 186 181 185 184 179 167 123 155 159 141 184 172 151 155 267 245 145 137 141 155 147 138 141 133 162 161 137 136 141 132 140 143 128 130 140
130 129 138 130 134 134 141 203 196 191 189 183 167 172 202 186 187 190 198 173 177 174 152 161 156 147 144 142 164 210 157 142 179 190 187 134 131 149 135 134 159 142 146 150 146 149 140 124 138
138 119 126 148 129 139 212 150 215 223 103 227 170 188 183 194 185 188 186 173 176 180 175 163 167 141 150 146 147 149 129 149 172 167 185 144 154 166 175 135 127 131 147 123 141 146 151 154 134
120 120 117 129 125 142 133 137 197 230 152 172 210 159 143 184 185 191 181 179 162 166 158 157 179 164 177 164 139 163 151 156 180 172 170 164 147 139 149 154 127 142 140 173 142 161 142 142 144
150 126 130 123 119 128 133 134 149 207 221 207 169 168 166 187 209 193 198 182 168 163 168 187 175 165 153 156 156 153 158 147 145 178 165 188 138 168 147 140 145 151 146 157 154 145 140 159 146
153 131 135 141 128 125 118 128 192 205 224 194 203 221 181 219 167 210 209 204 181 179 187 150 152 157 156 140 137 150 161 161 153 147 140 138 136 154 169 145 144 173 166 143 132 142 157 156 144
147 146 145 136 157 145 129 133 137 214 139 219 171 191 173 198 214 219 259 251 211 169 162 153 147 198 203 162 195 148 139 160 151 151 144 149 191 154 148 174 147 141 142 143 143 154 171 172 158
140 140 138 125 156 212 202 182 131 183 191 190 184 184 180 173 173 174 199 300 286 271 186 139 157 185 210 186 184 191 162 156 167 151 151 153 143 139 141 144 158 158 159 149 164 164 162 146 145
143 146 146 169 225 194 131 125 140 128 225 192 139 190 194 180 176 181 203 183 173 204 203 252 210 196 192 188 214 183 178 183 170 165 154 154 153 146 151 153 148 154 157 149 163 158 137 142 138
145 144 216 218 215 201 120 199 225 160 127 211 219 120 130 142 146 169 201 200 196 161 177 203 216 154 186 190 200 201 183 168 179 199 166 171 163 148 147 152 151 172 151 170 171 154 165 166 176
139 139 198 119 180 201 170 204 130 139 138 242 241 181 153 191 157 188 196 172 171 157 168 166 185 189 183 184 193 202 196 190 175 181 180 199 171 188 192 175 182 163 178 157 160 157 159 158 160
Wind_Speed
11 6 18 10 14 22 7 14 15 13 12 7 14 12 16 5 9 14 13 14 14 19 18 16 12 11 14 17 21 21 30 33 19 20 17 20 17 10 9 8 9 12 55 73 66 53 25 24 57
16 17 18 14 9 7 14 9 12 10 13 5 12 6 6 11 9 11 13 14 16 16 15 17 13 14 13 12 21 24 28 32 23 19 19 15 14 11 15 17 11 12 13 55 66 52 31 34 30
14 17 9 11 8 2 3 4 10 6 6 16 11 7 5 7 7 10 12 13 16 16 16 16 15 10 12 15 21 25 28 28 33 20 19 18 17 13 15 16 15 15 15 45 60 60 48 12 55
20 21 19 18 18 18 4 4 9 10 4 5 6 3 4 11 6 11 10 13 15 17 17 16 16 9 10 14 16 24 27 26 29 36 32 28 25 28 26 25 23 20 18 16 16 18 69 65 13
18 18 20 18 18 17 12 3 5 18 7 7 9 8 5 6 5 8 11 13 14 17 17 16 15 11 9 13 15 21 19 24 27 30 37 42 33 26 38 36 32 30 27 21 17 15 14 29 5
19 16 15 15 12 15 17 11 7 4 10 15 13 15 5 6 7 7 10 12 15 15 14 15 13 17 11 11 14 16 22 21 23 26 27 30 34 37 39 39 37 35 32 28 23 17 6 7 15
6 12 14 12 11 9 12 10 8 6 6 10 12 14 6 3 5 6 8 11 14 12 15 15 8 14 12 10 11 14 20 23 20 22 25 25 26 28 31 31 31 14 35 33 25 22 19 19 19
15 9 10 9 9 9 7 9 10 6 1 6 4 9 8 2 1 3 8 9 9 10 12 14 10 11 6 7 9 12 16 20 17 12 22 24 21 22 23 27 25 30 26 25 35 32 18 15 14
15 14 11 9 8 11 8 5 4 3 4 4 3 2 10 6 7 6 6 7 6 8 9 8 12 7 6 8 10 12 14 14 18 19 19 6 24 19 21 21 22 23 21 27 21 26 23 19 17
12 15 13 13 8 8 8 10 11 7 6 6 5 7 13 11 13 7 8 3 2 4 6 5 10 10 6 6 8 9 11 11 14 14 17 19 22 8 21 19 20 21 19 20 20 20 16 12 13
20 12 16 16 16 10 7 8 7 5 3 4 3 4 6 7 5 4 7 5 4 2 0 3 7 9 9 4 2 5 8 7 8 10 15 17 11 12 20 8 17 17 17 18 13 11 11 14 16
21 17 17 17 14 8 5 5 6 6 5 2 3 15 15 6 5 3 4 6 6 6 6 2 3 7 10 3 5 4 3 4 3 3 11 12 15 16 9 12 19 14 17 14 16 15 14 16 20
22 15 14 8 1 6 7 4 6 10 15 9 6 6 3 3 5 24 14 9 6 8 6 4 1 3 7 10 3 5 6 5 4 10 6 4 12 17 15 15 12 13 14 15 15 13 14 15 13
21 3 10 12 6 10 4 2 3 7 15 9 3 6 6 10 5 3 10 6 13 13 10 4 5 4 4 3 3 11 5 6 3 3 7 4 7 9 8 4 9 8 13 7 14 11 10 11 12
6 12 9 11 11 3 2 14 9 13 13 2 3 5 7 6 9 2 3 11 14 9 20 7 13 4 4 4 7 6 14 9 10 3 9 3 7 8 7 11 9 6 11 6 9 8 11 12 13
7 6 6 2 7 5 14 4 2 1 1 2 11 16 11 4 8 10 4 7 2 15 10 6 11 6 3 5 9 9 13 18 11 12 9 8 4 6 10 6 6 9 8 9 3 4 6 2 12
16 9 7 9 16 15 11 10 7 13 13 5 7 11 13 12 11 10 6 6 16 12 10 3 7 7 8 5 13 8 6 19 18 19 5 11 10 7 7 7 6 2 12 4 5 2 6 6 6
5 4 12 13 12 17 7 11 11 5 3 5 7 11 14 6 14 13 8 8 10 20 15 7 2 5 5 11 14 10 16 16 12 7 7 2 6 8 6 6 9 10 5 16 13 9 6 7 8
3 8 8 8 10 20 13 7 6 7 7 7 5 12 13 11 11 12 19 11 13 6 7 12 14 4 7 14 13 16 28 8 22 22 22 5 1 5 4 8 7 9 13 12 13 24 17 9 9
5 6 10 6 11 15 13 8 6 11 10 8 3 11 18 16 18 17 15 18 10 12 15 8 3 5 2 8 21 31 12 10 11 10 13 15 14 18 15 13 9 12 17 16 23 21 7 11 15
6 5 8 11 5 10 11 13 13 15 17 7 13 16 16 18 18 21 14 24 28 22 19 22 16 11 7 8 11 18 17 23 17 22 28 19 26 20 17 13 16 12 21 28 33 34 23 15 22
8 11 11 12 15 15 14 15 17 22 7 12 12 17 15 18 21 19 20 18 21 24 24 25 26 4 13 5 14 19 15 27 18 20 25 28 25 27 28 20 20 11 21 12 29 34 38 36 25
7 9 7 12 13 16 19 18 18 17 17 9 12 10 25 17 21 25 21 21 19 26 21 21 28 27 25 16 16 22 24 26 23 23 22 26 28 32 22 21 25 20 22 37 28 44 30 33 37
12 9 9 9 11 11 7 11 13 17 18 19 11 17 15 15 21 26 32 28 26 27 32 39 30 24 27 35 28 27 31 33 31 24 27 29 31 27 31 24 29 36 30 28 29 32 37 41 40
15 13 13 17 11 12 9 9 14 13 12 16 16 17 13 12 15 18 27 34 28 33 35 17 26 34 36 15 19 29 36 34 40 38 37 33 27 34 36 32 27 37 38 36 29 32 41 43 41
16 12 21 14 23 17 13 11 14 15 15 11 15 17 12 13 7 12 10 18 28 23 24 17 20 31 35 25 40 32 29 40 40 43 44 44 38 45 42 43 41 40 39 38 38 46 56 55 46
21 22 21 16 26 16 17 15 12 23 18 17 16 19 19 15 9 12 18 14 13 19 20 18 27 30 41 44 37 48 48 48 50 46 46 47 43 31 36 41 50 53 54 44 58 55 51 39 41
25 22 22 19 11 21 18 21 21 10 18 23 21 27 27 20 14 8 12 11 14 15 23 27 34 31 35 35 36 48 47 51 54 55 50 52 51 46 44 46 47 54 42 52 52 56 37 40 38
25 24 22 15 16 21 15 16 24 17 23 30 27 23 20 20 21 14 9 4 7 22 21 20 27 27 30 37 41 44 48 43 48 50 49 56 57 50 51 56 56 60 57 59 59 58 59 55 55
26 29 23 14 23 20 15 21 21 21 22 20 9 28 26 36 26 11 3 7 9 22 29 31 37 42 42 41 43 45 47 48 46 50 49 49 44 55 55 63 61 59 60 56 56 56 61 62 61
Wind_Direction
304 349 295 318 306 295 347 325 320 329 329 308 323 341 335 323 331 334 342 352 17 349 339 344 351 2 7 18 12 22 21 23 41 37 45 44 66 86 106 138 147 200 194 199 208 229 256 249 244
303 297 302 317 315 350 315 326 335 340 327 311 331 306 325 331 350 344 341 343 351 336 341 349 355 5 2 45 14 26 24 31 56 36 36 45 65 72 79 92 118 108 147 204 206 224 244 248 264
319 310 358 321 341 71 81 209 334 191 259 318 327 336 323 332 335 349 335 331 349 337 355 349 360 0 358 16 29 37 31 31 44 62 64 59 75 73 93 98 72 93 101 206 207 213 227 258 244
304 309 307 301 299 298 32 224 297 300 250 263 264 286 315 342 337 351 330 330 335 333 356 351 359 347 10 9 63 42 41 41 40 65 69 76 72 74 90 97 93 95 104 120 132 181 220 228 69
310 315 315 313 314 304 350 327 261 290 287 297 285 298 324 359 349 349 348 338 342 339 344 348 360 340 2 3 35 39 56 48 51 56 59 73 80 84 82 86 88 88 92 106 131 150 172 220 231
313 315 309 318 315 341 333 5 6 1 300 297 302 290 298 357 352 354 344 333 352 335 340 345 342 7 355 15 36 49 44 73 54 55 62 67 74 80 82 82 83 83 86 95 105 115 27 148 212
350 318 309 308 320 339 348 339 3 31 19 288 291 289 311 44 356 1 336 331 6 344 19 11 333 6 351 17 26 25 45 35 71 58 63 64 68 75 83 87 88 59 89 82 96 99 107 118 140
312 310 300 310 306 312 314 0 17 36 347 303 272 288 300 328 82 287 328 333 328 341 332 15 2 5 317 4 17 41 42 56 54 82 75 81 77 72 80 92 90 93 95 95 86 90 111 72 97
307 307 312 298 304 314 308 312 11 19 53 18 42 2 299 301 311 281 268 319 313 343 337 327 2 352 355 5 8 36 30 38 53 45 72 16 85 62 84 86 87 95 90 86 88 94 102 97 89
294 305 316 320 298 287 290 287 292 318 279 205 220 272 306 302 328 282 298 240 285 326 357 339 325 12 351 2 6 15 40 37 42 41 35 78 87 93 86 71 69 83 79 79 73 86 95 88 85
314 296 313 314 318 307 284 290 286 292 41 279 306 291 259 254 256 224 256 221 201 123 324 6 290 4 309 307 320 3 37 49 27 55 89 94 63 37 88 96 78 81 78 77 72 70 80 71 71
308 315 321 326 317 285 288 299 314 298 319 332 329 86 101 293 303 252 205 252 193 183 168 154 269 295 275 5 351 300 8 40 344 1 48 5 45 21 55 68 86 82 82 66 85 81 91 81 63
304 309 313 307 61 37 327 316 322 297 302 290 94 108 115 49 34 84 75 54 185 143 162 176 8 286 207 240 295 294 272 255 356 11 342 355 36 21 112 49 74 63 70 50 60 37 59 63 72
304 70 304 310 27 318 52 101 221 252 298 284 149 290 176 120 115 33 118 132 83 99 118 146 142 90 173 287 256 242 19 256 313 294 354 272 46 45 105 81 34 66 34 56 41 36 43 32 34
309 287 307 298 281 6 357 284 203 329 304 188 262 300 203 151 148 183 61 348 82 107 90 77 80 77 78 297 257 255 248 333 265 14 239 282 39 17 19 346 3 13 22 50 32 34 31 12 7
305 318 338 340 338 326 315 1 264 245 52 203 265 261 251 313 147 326 48 129 352 149 186 230 90 127 198 288 309 270 264 251 310 277 283 261 318 294 323 36 62 330 15 20 31 15 31 26 9
273 15 303 351 301 326 314 289 239 353 250 237 266 304 303 314 313 291 192 288 247 202 218 152 173 147 198 237 326 295 276 259 266 268 297 239 268 256 297 325 345 34 331 349 339 338 323 343 330
13 318 303 303 328 304 292 240 217 300 253 196 238 250 266 315 271 277 235 190 220 228 273 237 157 135 167 213 231 290 262 263 261 260 309 2 305 255 257 282 290 300 289 320 303 292 281 278 329
353 291 305 301 318 311 303 268 248 292 330 71 193 223 281 294 293 264 252 242 249 254 244 296 257 315 348 325 262 267 220 341 234 245 245 172 269 248 250 270 304 283 293 282 293 315 308 287 293
339 349 272 314 315 309 306 296 286 307 317 339 1 199 237 264 273 269 252 254 299 272 276 345 329 321 38 314 236 217 302 304 298 212 200 227 225 259 243 235 240 275 288 276 287 287 281 287 297
311 330 324 340 40 350 354 273 276 271 294 306 300 288 222 242 254 257 221 245 256 265 295 293 317 308 334 308 292 241 265 287 236 236 242 254 267 250 242 249 227 244 284 280 282 283 279 264 281
295 347 329 314 322 333 259 342 237 236 353 222 275 250 248 236 247 247 251 259 270 280 268 282 286 327 276 303 292 280 302 280 243 231 243 232 259 246 243 251 293 305 247 310 266 277 281 285 275
303 327 328 324 327 329 351 358 272 220 329 255 189 276 313 239 250 237 245 239 270 270 300 299 254 269 274 278 294 264 269 273 233 235 224 215 242 289 247 234 304 269 261 255 274 268 265 271 272
269 283 290 306 314 313 345 346 345 241 221 222 240 270 270 273 257 249 239 241 249 266 268 267 275 277 297 285 273 278 260 270 267 240 226 241 284 239 265 276 271 265 273 265 268 270 278 267 271
286 288 291 292 317 312 343 355 300 252 269 250 238 250 235 259 268 258 244 238 239 242 243 321 306 300 289 294 289 272 250 246 250 253 266 272 287 245 241 267 277 247 254 270 293 272 271 264 264
280 275 274 286 292 307 328 337 341 279 326 246 274 283 259 293 299 285 276 257 236 251 269 283 281 263 257 277 239 266 275 245 261 253 265 262 221 250 268 236 259 272 277 278 278 280 276 276 259
263 263 279 293 289 233 248 262 320 289 295 291 282 278 275 272 286 299 305 281 258 261 269 286 253 254 256 253 243 237 248 255 241 256 260 259 276 291 287 281 264 267 270 280 274 278 274 268 262
269 276 281 280 234 252 317 312 323 2 259 272 328 258 245 246 245 244 308 276 265 271 271 256 252 254 251 253 247 244 245 241 242 245 257 258 259 274 270 269 276 271 272 284 274 272 288 283 282
275 279 249 249 228 243 310 238 229 310 341 250 247 333 317 308 307 279 330 264 330 235 255 262 260 274 255 250 248 247 247 256 250 253 256 250 256 266 270 268 270 264 274 265 263 275 273 274 274
273 273 251 313 263 246 279 235 329 327 332 255 229 278 289 215 288 256 249 276 258 276 273 273 264 254 257 252 250 250 250 252 260 257 257 259 260 260 260 266 265 267 267 265 269 274 274 274 274